contact:dominique.lefevre@mio.osupytheas.fr, maurice.libes@osupytheas.fr, didier.mallarino@osupytheas.fr
Project:EMSO http://www.emso-fr.org/EMSO-France
Depth: 2436.0 m
Title:EMSO Ligure Ouest : Data MII capteur MICROCAT
DateTime_Computer,Latitude,Longitude,Temperature,Conductivity,Pressure,DateTime_Instrument
DateTime_Computer,Latitude,Longitude,degC,S m-1,dbar,DateTime_Instrument
2022-10-01T00:00:20Z,42.805,6.029,13.3028,4.60073,2470.693,2022-10-01T02:02:14Z
2022-10-01T00:03:23Z,42.805,6.029,13.3021,4.60073,2470.646,2022-10-01T02:05:17Z
2022-10-01T00:06:26Z,42.805,6.029,13.3024,4.60074,2470.684,2022-10-01T02:08:20Z
2022-10-01T00:09:29Z,42.805,6.029,13.3015,4.60081,2470.661,2022-10-01T02:11:23Z
2022-10-01T00:12:32Z,42.805,6.029,13.3032,4.60112,2470.684,2022-10-01T02:14:26Z
2022-10-01T00:15:35Z,42.805,6.029,13.3026,4.60084,2470.661,2022-10-01T02:17:29Z
2022-10-01T00:18:39Z,42.805,6.029,13.3029,4.60099,2470.646,2022-10-01T02:20:32Z
2022-10-01T00:21:42Z,42.805,6.029,13.3027,4.60101,2470.684,2022-10-01T02:23:35Z
2022-10-01T00:24:45Z,42.805,6.029,13.3032,4.60112,2470.684,2022-10-01T02:26:39Z
2022-10-01T00:27:48Z,42.805,6.029,13.3037,4.60114,2470.684,2022-10-01T02:29:42Z
2022-10-01T00:30:51Z,42.805,6.029,13.3024,4.60092,2470.67,2022-10-01T02:32:45Z
2022-10-01T00:33:54Z,42.805,6.029,13.3024,4.60104,2470.661,2022-10-01T02:35:48Z
2022-10-01T00:36:57Z,42.805,6.029,13.3033,4.60095,2470.67,2022-10-01T02:38:51Z
2022-10-01T00:40:00Z,42.805,6.029,13.3022,4.60108,2470.67,2022-10-01T02:41:54Z
2022-10-01T00:43:03Z,42.805,6.029,13.3042,4.60112,2470.67,2022-10-01T02:44:57Z
2022-10-01T00:46:07Z,42.805,6.029,13.3022,4.60087,2470.646,2022-10-01T02:48:00Z
2022-10-01T00:49:10Z,42.805,6.029,13.3019,4.60091,2470.646,2022-10-01T02:51:03Z
2022-10-01T00:52:13Z,42.805,6.029,13.3034,4.60102,2470.646,2022-10-01T02:54:07Z
2022-10-01T00:55:16Z,42.805,6.029,13.3030,4.60092,2470.661,2022-10-01T02:57:10Z
2022-10-01T00:58:19Z,42.805,6.029,13.3036,4.60112,2470.624,2022-10-01T03:00:13Z
2022-10-01T01:01:22Z,42.805,6.029,13.3047,4.60099,2470.646,2022-10-01T03:03:16Z
2022-10-01T01:04:25Z,42.805,6.029,13.3040,4.60084,2470.684,2022-10-01T03:06:19Z
2022-10-01T01:07:28Z,42.805,6.029,13.3018,4.60077,2470.684,2022-10-01T03:09:22Z
2022-10-01T01:10:31Z,42.805,6.029,13.3026,4.60084,2470.6,2022-10-01T03:12:25Z
2022-10-01T01:13:35Z,42.805,6.029,13.3034,4.60090,2470.637,2022-10-01T03:15:28Z
2022-10-01T01:16:38Z,42.805,6.029,13.3039,4.60099,2470.661,2022-10-01T03:18:31Z
2022-10-01T01:19:41Z,42.805,6.029,13.3019,4.60087,2470.646,2022-10-01T03:21:35Z
2022-10-01T01:22:44Z,42.805,6.029,13.3030,4.60083,2470.646,2022-10-01T03:24:38Z
2022-10-01T01:25:47Z,42.805,6.029,13.3019,4.60103,2470.637,2022-10-01T03:27:41Z
2022-10-01T01:28:50Z,42.805,6.029,13.3031,4.60104,2470.637,2022-10-01T03:30:44Z
2022-10-01T01:31:53Z,42.805,6.029,13.3037,4.60103,2470.646,2022-10-01T03:33:47Z
2022-10-01T01:34:56Z,42.805,6.029,13.3023,4.60098,2470.637,2022-10-01T03:36:50Z
2022-10-01T01:37:59Z,42.805,6.029,13.3026,4.60089,2470.646,2022-10-01T03:39:53Z
2022-10-01T01:41:03Z,42.805,6.029,13.3043,4.60101,2470.646,2022-10-01T03:42:56Z
2022-10-01T01:44:06Z,42.805,6.029,13.3029,4.60087,2470.637,2022-10-01T03:46:00Z
2022-10-01T01:47:09Z,42.805,6.029,13.3029,4.60090,2470.624,2022-10-01T03:49:03Z
2022-10-01T01:50:12Z,42.805,6.029,13.3015,4.60072,2470.637,2022-10-01T03:52:06Z
2022-10-01T01:53:15Z,42.805,6.029,13.3024,4.60078,2470.637,2022-10-01T03:55:09Z
2022-10-01T01:56:18Z,42.805,6.029,13.3024,4.60086,2470.614,2022-10-01T03:58:12Z
2022-10-01T01:59:21Z,42.805,6.029,13.3021,4.60076,2470.614,2022-10-01T04:01:15Z
2022-10-01T02:02:24Z,42.805,6.029,13.3021,4.60087,2470.637,2022-10-01T04:04:18Z
2022-10-01T02:05:28Z,42.805,6.029,13.3031,4.60089,2470.591,2022-10-01T04:07:21Z
2022-10-01T02:08:31Z,42.805,6.029,13.3025,4.60094,2470.646,2022-10-01T04:10:24Z
2022-10-01T02:11:34Z,42.805,6.029,13.3024,4.60075,2470.624,2022-10-01T04:13:28Z
2022-10-01T02:14:37Z,42.805,6.029,13.3017,4.60074,2470.6,2022-10-01T04:16:31Z
2022-10-01T02:17:40Z,42.805,6.029,13.3020,4.60072,2470.637,2022-10-01T04:19:34Z
2022-10-01T02:20:43Z,42.805,6.029,13.3019,4.60078,2470.637,2022-10-01T04:22:37Z
2022-10-01T02:23:46Z,42.805,6.029,13.3015,4.60075,2470.586,2022-10-01T04:25:40Z
2022-10-01T02:26:49Z,42.805,6.029,13.3015,4.60078,2470.6,2022-10-01T04:28:43Z
2022-10-01T02:29:52Z,42.805,6.029,13.3035,4.60089,2470.637,2022-10-01T04:31:46Z
2022-10-01T02:32:56Z,42.805,6.029,13.3027,4.60109,2470.6,2022-10-01T04:34:49Z
2022-10-01T02:35:59Z,42.805,6.029,13.3031,4.60095,2470.6,2022-10-01T04:37:53Z
2022-10-01T02:39:02Z,42.805,6.029,13.3024,4.60089,2470.614,2022-10-01T04:40:56Z
2022-10-01T02:42:05Z,42.805,6.029,13.3029,4.60110,2470.6,2022-10-01T04:43:59Z
2022-10-01T02:45:08Z,42.805,6.029,13.3036,4.60114,2470.614,2022-10-01T04:47:02Z
2022-10-01T02:48:11Z,42.805,6.029,13.3021,4.60089,2470.6,2022-10-01T04:50:05Z
2022-10-01T02:51:14Z,42.805,6.029,13.3025,4.60081,2470.614,2022-10-01T04:53:08Z
2022-10-01T02:54:17Z,42.805,6.029,13.3034,4.60102,2470.637,2022-10-01T04:56:11Z
2022-10-01T02:57:21Z,42.805,6.029,13.3025,4.60091,2470.624,2022-10-01T04:59:14Z
2022-10-01T03:00:24Z,42.805,6.029,13.3034,4.60099,2470.567,2022-10-01T05:02:17Z
2022-10-01T03:03:27Z,42.805,6.029,13.3029,4.60104,2470.591,2022-10-01T05:05:21Z
2022-10-01T03:06:30Z,42.805,6.029,13.3032,4.60093,2470.6,2022-10-01T05:08:24Z
2022-10-01T03:09:33Z,42.805,6.029,13.3029,4.60106,2470.614,2022-10-01T05:11:27Z
2022-10-01T03:12:36Z,42.805,6.029,13.3027,4.60109,2470.591,2022-10-01T05:14:30Z
2022-10-01T03:15:39Z,42.805,6.029,13.3046,4.60099,2470.591,2022-10-01T05:17:33Z
2022-10-01T03:18:42Z,42.805,6.029,13.3039,4.60095,2470.591,2022-10-01T05:20:36Z
2022-10-01T03:21:45Z,42.805,6.029,13.3034,4.60114,2470.614,2022-10-01T05:23:39Z
2022-10-01T03:24:49Z,42.805,6.029,13.3029,4.60098,2470.591,2022-10-01T05:26:42Z
2022-10-01T03:27:52Z,42.805,6.029,13.3033,4.60094,2470.614,2022-10-01T05:29:45Z
2022-10-01T03:30:55Z,42.805,6.029,13.3033,4.60103,2470.577,2022-10-01T05:32:49Z
2022-10-01T03:33:58Z,42.805,6.029,13.3027,4.60119,2470.591,2022-10-01T05:35:52Z
2022-10-01T03:37:01Z,42.805,6.029,13.3043,4.60116,2470.591,2022-10-01T05:38:55Z
2022-10-01T03:40:04Z,42.805,6.029,13.3034,4.60113,2470.567,2022-10-01T05:41:58Z
2022-10-01T03:43:07Z,42.805,6.029,13.3029,4.60118,2470.6,2022-10-01T05:45:01Z
2022-10-01T03:46:10Z,42.805,6.029,13.3035,4.60112,2470.6,2022-10-01T05:48:04Z
2022-10-01T03:49:13Z,42.805,6.029,13.3022,4.60119,2470.6,2022-10-01T05:51:07Z
2022-10-01T03:52:17Z,42.805,6.029,13.3026,4.60110,2470.577,2022-10-01T05:54:10Z
2022-10-01T03:55:20Z,42.805,6.029,13.3034,4.60106,2470.567,2022-10-01T05:57:14Z
2022-10-01T03:58:23Z,42.805,6.029,13.3028,4.60110,2470.614,2022-10-01T06:00:17Z
2022-10-01T04:01:26Z,42.805,6.029,13.3028,4.60104,2470.577,2022-10-01T06:03:20Z
2022-10-01T04:04:29Z,42.805,6.029,13.3036,4.60117,2470.591,2022-10-01T06:06:23Z
2022-10-01T04:07:32Z,42.805,6.029,13.3024,4.60106,2470.577,2022-10-01T06:09:26Z
2022-10-01T04:10:35Z,42.805,6.029,13.3045,4.60117,2470.577,2022-10-01T06:12:29Z
2022-10-01T04:13:38Z,42.805,6.029,13.3038,4.60116,2470.553,2022-10-01T06:15:32Z
2022-10-01T04:16:42Z,42.805,6.029,13.3042,4.60117,2470.567,2022-10-01T06:18:35Z
2022-10-01T04:19:45Z,42.805,6.029,13.3024,4.60089,2470.591,2022-10-01T06:21:38Z
2022-10-01T04:22:48Z,42.805,6.029,13.3044,4.60119,2470.577,2022-10-01T06:24:42Z
2022-10-01T04:25:51Z,42.805,6.029,13.3039,4.60110,2470.614,2022-10-01T06:27:45Z
2022-10-01T04:28:54Z,42.805,6.029,13.3036,4.60127,2470.577,2022-10-01T06:30:48Z
2022-10-01T04:31:57Z,42.805,6.029,13.3054,4.60117,2470.591,2022-10-01T06:33:51Z
2022-10-01T04:35:00Z,42.805,6.029,13.3026,4.60110,2470.553,2022-10-01T06:36:54Z
2022-10-01T04:38:03Z,42.805,6.029,13.3039,4.60117,2470.591,2022-10-01T06:39:57Z
2022-10-01T04:41:06Z,42.805,6.029,13.3033,4.60127,2470.591,2022-10-01T06:43:00Z
2022-10-01T04:44:10Z,42.805,6.029,13.3022,4.60112,2470.614,2022-10-01T06:46:03Z
2022-10-01T04:47:13Z,42.805,6.029,13.3031,4.60104,2470.567,2022-10-01T06:49:07Z
2022-10-01T04:50:16Z,42.805,6.029,13.3044,4.60117,2470.563,2022-10-01T06:52:10Z
2022-10-01T04:53:19Z,42.805,6.029,13.3026,4.60093,2470.53,2022-10-01T06:55:13Z
2022-10-01T04:56:22Z,42.805,6.029,13.3027,4.60091,2470.567,2022-10-01T06:58:16Z
2022-10-01T04:59:25Z,42.805,6.029,13.3026,4.60102,2470.553,2022-10-01T07:01:19Z
2022-10-01T05:02:28Z,42.805,6.029,13.3039,4.60110,2470.577,2022-10-01T07:04:22Z
2022-10-01T05:05:31Z,42.805,6.029,13.3048,4.60107,2470.614,2022-10-01T07:07:25Z
2022-10-01T05:08:35Z,42.805,6.029,13.3029,4.60127,2470.553,2022-10-01T07:10:28Z
2022-10-01T05:11:38Z,42.805,6.029,13.3039,4.60114,2470.577,2022-10-01T07:13:31Z
2022-10-01T05:14:41Z,42.805,6.029,13.3045,4.60114,2470.6,2022-10-01T07:16:35Z
2022-10-01T05:17:44Z,42.805,6.029,13.3027,4.60127,2470.577,2022-10-01T07:19:38Z
2022-10-01T05:20:47Z,42.805,6.029,13.3019,4.60104,2470.577,2022-10-01T07:22:41Z
2022-10-01T05:23:50Z,42.805,6.029,13.3021,4.60117,2470.591,2022-10-01T07:25:44Z
2022-10-01T05:26:53Z,42.805,6.029,13.3041,4.60104,2470.577,2022-10-01T07:28:47Z
2022-10-01T05:29:56Z,42.805,6.029,13.3036,4.60125,2470.553,2022-10-01T07:31:50Z
2022-10-01T05:32:59Z,42.805,6.029,13.3038,4.60125,2470.577,2022-10-01T07:34:53Z
2022-10-01T05:36:03Z,42.805,6.029,13.3034,4.60119,2470.553,2022-10-01T07:37:56Z
2022-10-01T05:39:06Z,42.805,6.029,13.3035,4.60117,2470.591,2022-10-01T07:41:00Z
2022-10-01T05:42:09Z,42.805,6.029,13.3034,4.60083,2470.553,2022-10-01T07:44:03Z
2022-10-01T05:45:12Z,42.805,6.029,13.3048,4.60087,2470.591,2022-10-01T07:47:06Z
2022-10-01T05:48:15Z,42.805,6.029,13.3040,4.60110,2470.591,2022-10-01T07:50:09Z
2022-10-01T05:51:18Z,42.805,6.029,13.3046,4.60099,2470.567,2022-10-01T07:53:12Z
2022-10-01T05:54:21Z,42.805,6.029,13.3020,4.60076,2470.553,2022-10-01T07:56:15Z
2022-10-01T05:57:24Z,42.805,6.029,13.3043,4.60127,2470.567,2022-10-01T07:59:18Z
2022-10-01T06:00:27Z,42.805,6.029,13.3056,4.60150,2470.577,2022-10-01T08:02:21Z
2022-10-01T06:03:31Z,42.805,6.029,13.3063,4.60118,2470.553,2022-10-01T08:05:24Z
2022-10-01T06:06:34Z,42.805,6.029,13.3054,4.60099,2470.6,2022-10-01T08:08:28Z
2022-10-01T06:09:37Z,42.805,6.029,13.3044,4.60103,2470.624,2022-10-01T08:11:31Z
2022-10-01T06:12:40Z,42.805,6.029,13.3019,4.60102,2470.577,2022-10-01T08:14:34Z
2022-10-01T06:15:43Z,42.805,6.029,13.3027,4.60092,2470.614,2022-10-01T08:17:37Z
2022-10-01T06:18:46Z,42.805,6.029,13.3041,4.60104,2470.6,2022-10-01T08:20:40Z
2022-10-01T06:21:49Z,42.805,6.029,13.3025,4.60114,2470.577,2022-10-01T08:23:43Z
2022-10-01T06:24:52Z,42.805,6.029,13.3041,4.60128,2470.577,2022-10-01T08:26:46Z
2022-10-01T06:27:56Z,42.805,6.029,13.3034,4.60130,2470.6,2022-10-01T08:29:49Z
2022-10-01T06:30:59Z,42.805,6.029,13.3047,4.60107,2470.591,2022-10-01T08:32:53Z
2022-10-01T06:34:02Z,42.805,6.029,13.3040,4.60102,2470.6,2022-10-01T08:35:56Z
2022-10-01T06:37:05Z,42.805,6.029,13.3028,4.60117,2470.577,2022-10-01T08:38:59Z
2022-10-01T06:40:08Z,42.805,6.029,13.3044,4.60108,2470.577,2022-10-01T08:42:02Z
2022-10-01T06:43:11Z,42.805,6.029,13.3059,4.60113,2470.614,2022-10-01T08:45:05Z
2022-10-01T06:46:14Z,42.805,6.029,13.3063,4.60107,2470.637,2022-10-01T08:48:08Z
2022-10-01T06:49:17Z,42.805,6.029,13.3038,4.60116,2470.614,2022-10-01T08:51:11Z
2022-10-01T06:52:20Z,42.805,6.029,13.3024,4.60098,2470.6,2022-10-01T08:54:14Z
2022-10-01T06:55:24Z,42.805,6.029,13.3043,4.60097,2470.624,2022-10-01T08:57:17Z
2022-10-01T06:58:27Z,42.805,6.029,13.3031,4.60121,2470.646,2022-10-01T09:00:21Z
2022-10-01T07:01:30Z,42.805,6.029,13.3034,4.60130,2470.624,2022-10-01T09:03:24Z
2022-10-01T07:04:33Z,42.805,6.029,13.3036,4.60126,2470.646,2022-10-01T09:06:27Z
2022-10-01T07:07:36Z,42.805,6.029,13.3029,4.60110,2470.637,2022-10-01T09:09:30Z
2022-10-01T07:10:39Z,42.805,6.029,13.3056,4.60132,2470.624,2022-10-01T09:12:33Z
2022-10-01T07:13:42Z,42.805,6.029,13.3035,4.60134,2470.637,2022-10-01T09:15:36Z
2022-10-01T07:16:45Z,42.805,6.029,13.3030,4.60127,2470.661,2022-10-01T09:18:39Z
2022-10-01T07:19:49Z,42.805,6.029,13.3054,4.60135,2470.646,2022-10-01T09:21:42Z
2022-10-01T07:22:52Z,42.805,6.029,13.3056,4.60118,2470.661,2022-10-01T09:24:45Z
2022-10-01T07:25:55Z,42.805,6.029,13.3030,4.60124,2470.637,2022-10-01T09:27:49Z
2022-10-01T07:28:58Z,42.805,6.029,13.3029,4.60120,2470.637,2022-10-01T09:30:52Z
2022-10-01T07:32:01Z,42.805,6.029,13.3031,4.60097,2470.693,2022-10-01T09:33:55Z
2022-10-01T07:35:04Z,42.805,6.029,13.3029,4.60084,2470.646,2022-10-01T09:36:58Z
2022-10-01T07:38:07Z,42.805,6.029,13.3039,4.60124,2470.646,2022-10-01T09:40:01Z
2022-10-01T07:41:10Z,42.805,6.029,13.3041,4.60125,2470.637,2022-10-01T09:43:04Z
2022-10-01T07:44:13Z,42.805,6.029,13.3041,4.60126,2470.684,2022-10-01T09:46:07Z
2022-10-01T07:47:17Z,42.805,6.029,13.3044,4.60097,2470.661,2022-10-01T09:49:10Z
2022-10-01T07:50:20Z,42.805,6.029,13.3031,4.60116,2470.693,2022-10-01T09:52:14Z
2022-10-01T07:53:23Z,42.805,6.029,13.3026,4.60117,2470.693,2022-10-01T09:55:17Z
2022-10-01T07:56:26Z,42.805,6.029,13.3039,4.60119,2470.67,2022-10-01T09:58:20Z
2022-10-01T07:59:29Z,42.805,6.029,13.3039,4.60116,2470.656,2022-10-01T10:01:23Z
2022-10-01T08:02:32Z,42.805,6.029,13.3052,4.60141,2470.684,2022-10-01T10:04:26Z
2022-10-01T08:05:35Z,42.805,6.029,13.3030,4.60135,2470.67,2022-10-01T10:07:29Z
2022-10-01T08:08:38Z,42.805,6.029,13.3039,4.60114,2470.684,2022-10-01T10:10:32Z
2022-10-01T08:11:42Z,42.805,6.029,13.3022,4.60109,2470.67,2022-10-01T10:13:35Z
2022-10-01T08:14:45Z,42.805,6.029,13.3039,4.60119,2470.693,2022-10-01T10:16:38Z
2022-10-01T08:17:48Z,42.805,6.029,13.3028,4.60095,2470.684,2022-10-01T10:19:42Z
2022-10-01T08:20:51Z,42.805,6.029,13.3026,4.60089,2470.73,2022-10-01T10:22:45Z
2022-10-01T08:23:54Z,42.805,6.029,13.3027,4.60125,2470.707,2022-10-01T10:25:48Z
2022-10-01T08:26:57Z,42.805,6.029,13.3043,4.60115,2470.73,2022-10-01T10:28:51Z
2022-10-01T08:30:00Z,42.805,6.029,13.3044,4.60129,2470.717,2022-10-01T10:31:54Z
2022-10-01T08:33:03Z,42.805,6.029,13.3056,4.60131,2470.693,2022-10-01T10:34:57Z
2022-10-01T08:36:07Z,42.805,6.029,13.3035,4.60141,2470.717,2022-10-01T10:38:00Z
2022-10-01T08:39:10Z,42.805,6.029,13.3057,4.60116,2470.693,2022-10-01T10:41:03Z
2022-10-01T08:42:13Z,42.805,6.029,13.3052,4.60135,2470.707,2022-10-01T10:44:07Z
2022-10-01T08:45:16Z,42.805,6.029,13.3055,4.60134,2470.693,2022-10-01T10:47:10Z
2022-10-01T08:48:19Z,42.805,6.029,13.3057,4.60139,2470.684,2022-10-01T10:50:13Z
2022-10-01T08:51:22Z,42.805,6.029,13.3044,4.60116,2470.693,2022-10-01T10:53:16Z
2022-10-01T08:54:25Z,42.805,6.029,13.3039,4.60117,2470.73,2022-10-01T10:56:19Z
2022-10-01T08:57:28Z,42.805,6.029,13.3048,4.60125,2470.693,2022-10-01T10:59:22Z
2022-10-01T09:00:31Z,42.805,6.029,13.3035,4.60113,2470.717,2022-10-01T11:02:25Z
2022-10-01T09:03:35Z,42.805,6.029,13.3036,4.60131,2470.707,2022-10-01T11:05:28Z
2022-10-01T09:06:38Z,42.805,6.029,13.3029,4.60112,2470.717,2022-10-01T11:08:32Z
2022-10-01T09:09:41Z,42.805,6.029,13.3022,4.60103,2470.754,2022-10-01T11:11:35Z
2022-10-01T09:12:44Z,42.805,6.029,13.3032,4.60105,2470.74,2022-10-01T11:14:38Z
2022-10-01T09:15:47Z,42.805,6.029,13.3047,4.60125,2470.74,2022-10-01T11:17:41Z
2022-10-01T09:18:50Z,42.805,6.029,13.3027,4.60111,2470.754,2022-10-01T11:20:44Z
2022-10-01T09:21:53Z,42.805,6.029,13.3039,4.60106,2470.74,2022-10-01T11:23:47Z
2022-10-01T09:24:56Z,42.805,6.029,13.3049,4.60130,2470.74,2022-10-01T11:26:50Z
2022-10-01T09:28:00Z,42.805,6.029,13.3033,4.60102,2470.74,2022-10-01T11:29:53Z
2022-10-01T09:31:03Z,42.805,6.029,13.3044,4.60116,2470.73,2022-10-01T11:32:56Z
2022-10-01T09:34:06Z,42.805,6.029,13.3046,4.60133,2470.74,2022-10-01T11:36:00Z
2022-10-01T09:37:09Z,42.805,6.029,13.3031,4.60133,2470.717,2022-10-01T11:39:03Z
2022-10-01T09:40:12Z,42.805,6.029,13.3043,4.60137,2470.74,2022-10-01T11:42:06Z
2022-10-01T09:43:15Z,42.805,6.029,13.3036,4.60128,2470.754,2022-10-01T11:45:09Z
2022-10-01T09:46:18Z,42.805,6.029,13.3023,4.60138,2470.754,2022-10-01T11:48:12Z
2022-10-01T09:49:21Z,42.805,6.029,13.3039,4.60122,2470.693,2022-10-01T11:51:15Z
2022-10-01T09:52:25Z,42.805,6.029,13.3031,4.60092,2470.74,2022-10-01T11:54:18Z
2022-10-01T09:55:28Z,42.805,6.029,13.3038,4.60124,2470.74,2022-10-01T11:57:21Z
2022-10-01T09:58:31Z,42.805,6.029,13.3043,4.60107,2470.74,2022-10-01T12:00:25Z
2022-10-01T10:01:34Z,42.805,6.029,13.3039,4.60130,2470.74,2022-10-01T12:03:28Z
2022-10-01T10:04:37Z,42.805,6.029,13.3039,4.60121,2470.74,2022-10-01T12:06:31Z
2022-10-01T10:07:40Z,42.805,6.029,13.3034,4.60125,2470.74,2022-10-01T12:09:34Z
2022-10-01T10:10:43Z,42.805,6.029,13.3051,4.60109,2470.74,2022-10-01T12:12:37Z
2022-10-01T10:13:46Z,42.805,6.029,13.3040,4.60082,2470.717,2022-10-01T12:15:40Z
2022-10-01T10:16:49Z,42.805,6.029,13.3034,4.60102,2470.754,2022-10-01T12:18:43Z
2022-10-01T10:19:53Z,42.805,6.029,13.3026,4.60087,2470.754,2022-10-01T12:21:46Z
2022-10-01T10:22:56Z,42.805,6.029,13.3041,4.60121,2470.73,2022-10-01T12:24:50Z
2022-10-01T10:25:59Z,42.805,6.029,13.3027,4.60108,2470.74,2022-10-01T12:27:53Z
2022-10-01T10:29:02Z,42.805,6.029,13.3023,4.60125,2470.717,2022-10-01T12:30:56Z
2022-10-01T10:32:05Z,42.805,6.029,13.3041,4.60098,2470.73,2022-10-01T12:33:59Z
2022-10-01T10:35:08Z,42.805,6.029,13.3026,4.60099,2470.74,2022-10-01T12:37:02Z
2022-10-01T10:38:11Z,42.805,6.029,13.3024,4.60109,2470.74,2022-10-01T12:40:05Z
2022-10-01T10:41:14Z,42.805,6.029,13.3039,4.60122,2470.74,2022-10-01T12:43:08Z
2022-10-01T10:44:18Z,42.805,6.029,13.3043,4.60120,2470.754,2022-10-01T12:46:11Z
2022-10-01T10:47:21Z,42.805,6.029,13.3023,4.60097,2470.74,2022-10-01T12:49:15Z
2022-10-01T10:50:24Z,42.805,6.029,13.3030,4.60101,2470.707,2022-10-01T12:52:18Z
2022-10-01T10:53:27Z,42.805,6.029,13.3025,4.60089,2470.74,2022-10-01T12:55:21Z
2022-10-01T10:56:30Z,42.805,6.029,13.3013,4.60108,2470.754,2022-10-01T12:58:24Z
2022-10-01T10:59:33Z,42.805,6.029,13.3031,4.60101,2470.754,2022-10-01T13:01:27Z
2022-10-01T11:02:36Z,42.805,6.029,13.3048,4.60108,2470.754,2022-10-01T13:04:30Z
2022-10-01T11:05:39Z,42.805,6.029,13.3050,4.60119,2470.74,2022-10-01T13:07:33Z
2022-10-01T11:08:43Z,42.805,6.029,13.3049,4.60106,2470.74,2022-10-01T13:10:36Z
2022-10-01T11:11:46Z,42.805,6.029,13.3041,4.60110,2470.777,2022-10-01T13:13:40Z
2022-10-01T11:14:49Z,42.805,6.029,13.3034,4.60096,2470.74,2022-10-01T13:16:43Z
2022-10-01T11:17:52Z,42.805,6.029,13.3034,4.60102,2470.763,2022-10-01T13:19:46Z
2022-10-01T11:20:55Z,42.805,6.029,13.3020,4.60082,2470.73,2022-10-01T13:22:49Z
2022-10-01T11:23:58Z,42.805,6.029,13.3026,4.60094,2470.74,2022-10-01T13:25:52Z
2022-10-01T11:27:01Z,42.805,6.029,13.3019,4.60099,2470.74,2022-10-01T13:28:55Z
2022-10-01T11:30:04Z,42.805,6.029,13.3040,4.60114,2470.74,2022-10-01T13:31:58Z
2022-10-01T11:33:08Z,42.805,6.029,13.3026,4.60098,2470.73,2022-10-01T13:35:01Z
2022-10-01T11:36:11Z,42.805,6.029,13.3020,4.60102,2470.763,2022-10-01T13:38:05Z
2022-10-01T11:39:14Z,42.805,6.029,13.3024,4.60104,2470.693,2022-10-01T13:41:08Z
2022-10-01T11:42:17Z,42.805,6.029,13.3031,4.60098,2470.754,2022-10-01T13:44:11Z
2022-10-01T11:45:20Z,42.805,6.029,13.3029,4.60106,2470.717,2022-10-01T13:47:14Z
2022-10-01T11:48:23Z,42.805,6.029,13.3030,4.60095,2470.754,2022-10-01T13:50:17Z
2022-10-01T11:51:26Z,42.805,6.029,13.3028,4.60094,2470.717,2022-10-01T13:53:20Z
2022-10-01T11:54:29Z,42.805,6.029,13.3048,4.60105,2470.73,2022-10-01T13:56:23Z
2022-10-01T11:57:33Z,42.805,6.029,13.3034,4.60101,2470.73,2022-10-01T13:59:26Z
2022-10-01T12:00:36Z,42.805,6.029,13.3017,4.60114,2470.717,2022-10-01T14:02:29Z
2022-10-01T12:03:39Z,42.805,6.029,13.3029,4.60095,2470.717,2022-10-01T14:05:33Z
2022-10-01T12:06:42Z,42.805,6.029,13.3035,4.60093,2470.707,2022-10-01T14:08:36Z
2022-10-01T12:09:45Z,42.805,6.029,13.3021,4.60079,2470.73,2022-10-01T14:11:39Z
2022-10-01T12:12:48Z,42.805,6.029,13.3021,4.60088,2470.73,2022-10-01T14:14:42Z
2022-10-01T12:15:51Z,42.805,6.029,13.3026,4.60100,2470.693,2022-10-01T14:17:45Z
2022-10-01T12:18:54Z,42.805,6.029,13.3032,4.60087,2470.693,2022-10-01T14:20:48Z
2022-10-01T12:21:57Z,42.805,6.029,13.3040,4.60099,2470.707,2022-10-01T14:23:51Z
2022-10-01T12:25:01Z,42.805,6.029,13.3025,4.60104,2470.717,2022-10-01T14:26:54Z
2022-10-01T12:28:04Z,42.805,6.029,13.3021,4.60079,2470.693,2022-10-01T14:29:58Z
2022-10-01T12:31:07Z,42.805,6.029,13.3023,4.60084,2470.693,2022-10-01T14:33:01Z
2022-10-01T12:34:10Z,42.805,6.029,13.3022,4.60067,2470.693,2022-10-01T14:36:04Z
2022-10-01T12:37:13Z,42.805,6.029,13.3017,4.60075,2470.693,2022-10-01T14:39:07Z
2022-10-01T12:40:16Z,42.805,6.029,13.3021,4.60074,2470.754,2022-10-01T14:42:10Z
2022-10-01T12:43:19Z,42.805,6.029,13.3024,4.60092,2470.693,2022-10-01T14:45:13Z
2022-10-01T12:46:22Z,42.805,6.029,13.3019,4.60107,2470.684,2022-10-01T14:48:16Z
2022-10-01T12:49:26Z,42.805,6.029,13.3039,4.60107,2470.693,2022-10-01T14:51:19Z
2022-10-01T12:52:29Z,42.805,6.029,13.3019,4.60075,2470.693,2022-10-01T14:54:23Z
2022-10-01T12:55:32Z,42.805,6.029,13.3015,4.60073,2470.693,2022-10-01T14:57:26Z
2022-10-01T12:58:35Z,42.805,6.029,13.3026,4.60072,2470.693,2022-10-01T15:00:29Z
2022-10-01T13:01:38Z,42.805,6.029,13.3016,4.60066,2470.693,2022-10-01T15:03:32Z
2022-10-01T13:04:41Z,42.805,6.029,13.3020,4.60073,2470.693,2022-10-01T15:06:35Z
2022-10-01T13:07:44Z,42.805,6.029,13.3021,4.60066,2470.67,2022-10-01T15:09:38Z
2022-10-01T13:10:47Z,42.805,6.029,13.3020,4.60077,2470.707,2022-10-01T15:12:41Z
2022-10-01T13:13:51Z,42.805,6.029,13.3015,4.60081,2470.707,2022-10-01T15:15:44Z
2022-10-01T13:16:54Z,42.805,6.029,13.3020,4.60073,2470.707,2022-10-01T15:18:47Z
2022-10-01T13:19:57Z,42.805,6.029,13.3013,4.60071,2470.693,2022-10-01T15:21:51Z
2022-10-01T13:23:00Z,42.805,6.029,13.3015,4.60067,2470.67,2022-10-01T15:24:54Z
2022-10-01T13:26:03Z,42.805,6.029,13.3014,4.60068,2470.693,2022-10-01T15:27:57Z
2022-10-01T13:29:06Z,42.805,6.029,13.3031,4.60072,2470.707,2022-10-01T15:31:00Z
2022-10-01T13:32:09Z,42.805,6.029,13.3016,4.60074,2470.67,2022-10-01T15:34:03Z
2022-10-01T13:35:12Z,42.805,6.029,13.3024,4.60072,2470.67,2022-10-01T15:37:06Z
2022-10-01T13:38:15Z,42.805,6.029,13.3015,4.60076,2470.693,2022-10-01T15:40:09Z
2022-10-01T13:41:19Z,42.805,6.029,13.3015,4.60078,2470.684,2022-10-01T15:43:12Z
2022-10-01T13:44:22Z,42.805,6.029,13.3014,4.60066,2470.698,2022-10-01T15:46:16Z
2022-10-01T13:47:25Z,42.805,6.029,13.3015,4.60072,2470.693,2022-10-01T15:49:19Z
2022-10-01T13:50:28Z,42.805,6.029,13.3015,4.60074,2470.661,2022-10-01T15:52:22Z
2022-10-01T13:53:31Z,42.805,6.029,13.3014,4.60085,2470.67,2022-10-01T15:55:25Z
2022-10-01T13:56:34Z,42.805,6.029,13.3016,4.60075,2470.67,2022-10-01T15:58:28Z
2022-10-01T13:59:37Z,42.805,6.029,13.3014,4.60081,2470.707,2022-10-01T16:01:31Z
2022-10-01T14:02:40Z,42.805,6.029,13.3011,4.60074,2470.684,2022-10-01T16:04:34Z
2022-10-01T14:05:44Z,42.805,6.029,13.3016,4.60085,2470.693,2022-10-01T16:07:37Z
2022-10-01T14:08:47Z,42.805,6.029,13.3027,4.60098,2470.67,2022-10-01T16:10:41Z
2022-10-01T14:11:50Z,42.805,6.029,13.3015,4.60084,2470.707,2022-10-01T16:13:44Z
2022-10-01T14:14:53Z,42.805,6.029,13.3027,4.60104,2470.67,2022-10-01T16:16:47Z
2022-10-01T14:17:56Z,42.805,6.029,13.3022,4.60098,2470.646,2022-10-01T16:19:50Z
2022-10-01T14:20:59Z,42.805,6.029,13.3022,4.60104,2470.646,2022-10-01T16:22:53Z
2022-10-01T14:24:02Z,42.805,6.029,13.3024,4.60094,2470.637,2022-10-01T16:25:56Z
2022-10-01T14:27:05Z,42.805,6.029,13.3017,4.60084,2470.67,2022-10-01T16:28:59Z
2022-10-01T14:30:09Z,42.805,6.029,13.3015,4.60071,2470.661,2022-10-01T16:32:02Z
2022-10-01T14:33:12Z,42.805,6.029,13.3011,4.60068,2470.67,2022-10-01T16:35:06Z
2022-10-01T14:36:15Z,42.805,6.029,13.3023,4.60074,2470.646,2022-10-01T16:38:09Z
2022-10-01T14:39:18Z,42.805,6.029,13.3027,4.60082,2470.707,2022-10-01T16:41:12Z
2022-10-01T14:42:21Z,42.805,6.029,13.3026,4.60067,2470.646,2022-10-01T16:44:15Z
2022-10-01T14:45:24Z,42.805,6.029,13.3035,4.60106,2470.67,2022-10-01T16:47:18Z
2022-10-01T14:48:27Z,42.805,6.029,13.3019,4.60093,2470.684,2022-10-01T16:50:21Z
2022-10-01T14:51:30Z,42.805,6.029,13.3024,4.60086,2470.633,2022-10-01T16:53:24Z
2022-10-01T14:54:34Z,42.805,6.029,13.3021,4.60093,2470.624,2022-10-01T16:56:27Z
2022-10-01T14:57:37Z,42.805,6.029,13.3014,4.60072,2470.661,2022-10-01T16:59:31Z
2022-10-01T15:00:40Z,42.805,6.029,13.3014,4.60075,2470.624,2022-10-01T17:02:34Z